NOAA NWS Hourly Roundups by Site

Regional Weather Roundup for San Diego, CA

To Select Another Site Choose from List

Select Site:  

917
ASUS46 KSGX 142111
RWRSGX

SAN DIEGO HOURLY WEATHER ROUNDUP
NATIONAL WEATHER SERVICE SAN DIEGO CA
100 PM PST SAT DEC 14 2019

NOTE: "FAIR" INDICATES FEW OR NO CLOUDS BELOW 12,000 FEET WITH NO
SIGNIFICANT WEATHER AND/OR OBSTRUCTIONS TO VISIBILITY.

CAZ042-043-060-061-PZZ750-775-142200-

GREATER SAN DIEGO AREA

CITY           SKY/WX    TMP DP  RH WIND       PRES   REMARKS
SAN DIEGO AP   PTSUNNY   66  57  72 SW8       29.97F
NATIONAL CITY    N/A    N/A N/A N/A CALM      29.96F
CHULA VISTA      N/A     66  58  74 W7        29.87F
BROWN FIELD    MOSUNNY   66  54  65 W7        29.95F
MIRAMAR MCAS   CLOUDY    67  54  63 NW6       29.95F
MONTGOMERY FLD CLOUDY    66  54  65 W10       29.96F
GILLESPIE FLD  PTSUNNY   64  54  68 W5        29.96F

$$

NORTH SAN DIEGO COUNTY

CITY           SKY/WX    TMP DP  RH WIND       PRES   REMARKS
CAMP PENDLETON CLOUDY    63  55  75 SW8       29.95F
OCEANSIDE AP   CLOUDY    65  57  75 S8        29.94F
OCEANSIDE HBR    N/A     64  58  81 S2        29.97F
CARLSBAD       CLOUDY    63  56  78 SW9       29.94F
DEL MAR          N/A     62  58  86 SW3       29.97F
LA JOLLA SCRIP   N/A     62  57  83 SW6       29.96F
FALLBROOK      CLOUDY    59  55  88 S6        29.96F
ESCONDIDO        N/A     64  56  75 CALM      29.95F
SAN MARCOS       N/A     61  55  81 CALM      29.98F
POWAY            N/A     64  55  71 CALM      29.98F

$$

EAST SAN DIEGO COUNTY

CITY           SKY/WX    TMP DP  RH WIND       PRES   REMARKS
RAMONA         CLOUDY    60  53  77 VRB3      29.96F
SANTEE LAKES     N/A     65  55  71 W1        29.93F
LA MESA          N/A     64  55  72 CALM      29.91F
JAMUL            N/A     61  53  75 S2        29.97F
DESCANSO N       N/A     53  47  79 W8        29.89F
MT. LAGUNA OBS   N/A     49  36  60 SW25      29.81F
CAMPO            N/A     62  47  57 W14G22    29.90F

$$

ORANGE COUNTY AND THE LOS ANGELES BASIN

CITY           SKY/WX    TMP DP  RH WIND       PRES   REMARKS
JOHN WAYNE AP  PTSUNNY   66  55  67 SW10      29.93F
LAGUNA BEACH     N/A     64  59  85 CALM      29.93F
LAKE FOREST FR   N/A     60  53  79 CALM      29.83F
HUNTINGTON BCH   N/A     67  60  78 SW2       29.94F
LOS ALAMITOS   PTSUNNY   64  54  69 S6        29.93F
FULLERTON      CLOUDY    64  54  69 VRB5      29.93F
LONG BEACH     PTSUNNY   64  54  69 SW6       29.93F
L.A. AP        PTSUNNY   64  53  67 SW8       29.93F
L.A. DOWNTOWN  CLOUDY    66  52  60 CALM      29.92F

$$

THE INLAND EMPIRE

CITY           SKY/WX    TMP DP  RH WIND       PRES   REMARKS
CORONA         CLOUDY    60  56  86 MISG      29.95F
CHINO          CLOUDY    58  54  86 VRB3      29.95F FOG
ONTARIO        DRIZZLE   57  53  86 CALM      29.94F FOG
SAN BERNARDINO CLOUDY    59  50  72 CALM      29.95
RIVERSIDE AP   CLOUDY    58  53  84 CALM      29.94F HAZE
MORENO VALLEY    N/A     53  53 100 E7        29.94F
MARCH ARB      CLOUDY    56  56 100 SE8       29.94F
HORSETHIEF CYN   N/A     59  50  72 S3        29.93F
PERRIS           N/A     54  54  97 SE2       29.98F
HEMET EAST       N/A     53  49  87 CALM      29.97F
FRENCH VALLEY  CLOUDY    55  52  88 S6        29.95F
TEMECULA         N/A     58  57  96 S5        29.94F

$$

SAN BERNARDINO AND RIVERSIDE COUNTY MOUNTAINS

CITY           SKY/WX    TMP DP  RH WIND       PRES   REMARKS
BIG BEAR AP    SUNNY     46  27  46 W13G18    29.96F
ANGELUS OAKS     N/A     50  35  58 CALM      29.79F

$$

SOUTHERN DESERT INCLUDING THE COACHELLA VALLEY

CITY           SKY/WX    TMP DP  RH WIND       PRES   REMARKS
PALM SPRINGS   SUNNY     69  43  38 E6        29.82F
THOUSAND PALMS   N/A     67  46  46 SW1       29.77F
PALM DESERT      N/A     71  46  40 CALM      29.29S
THERMAL        MOSUNNY   70  43  37 VRB3      29.79F
BORREGO AP     FAIR      73  46  38 SE12      29.80F
BLYTHE         MOSUNNY   69  42  37 CALM      29.80F
IMPERIAL AP    SUNNY     74  51  44 CALM      29.78F
EL CENTRO NAS  MOSUNNY   76  48  37 NE6       29.80F
YUMA AZ        SUNNY     73  43  33 W6        29.81F
MEXICALI       MOSUNNY   75  46  35 SE5       29.81F

$$

UPPER DESERT

CITY           SKY/WX    TMP DP  RH WIND       PRES   REMARKS
VICTORVILLE AP MOSUNNY  N/A N/A N/A W14G28    29.92F
HESPERIA         N/A     58  47  67 NE9       29.90F
APPLE VALLEY     N/A     61  42  50 NE3       29.90S
PALMDALE       MOSUNNY   58  41  53 W29G38    29.91F
LANCASTER      SUNNY     60  42  51 W28G39    29.92F
DAGGETT        SUNNY     66  41  40 W30G37    29.84F
29 PALMS N     SUNNY     67  39  35 W14       29.89F
NEEDLES        MOSUNNY   70  43  37 MISG      29.78F

$$

REGIONAL REPORTS

CITY           SKY/WX    TMP DP  RH WIND       PRES   REMARKS
SANTA BARBARA  MOSUNNY   66  51  58 W23G30    29.91F
SANDBERG       MOSUNNY   50  40  68 NW22G33   29.96F
LAS VEGAS NV   PTSUNNY   59  40  49 CALM      29.80F
PHOENIX AZ     PTSUNNY   68  44  42 CALM      29.82F
TIJUANA        MOSUNNY   66  55  68 NW7       29.98F
ENSENADA NW      N/A     65  32  29 W9        29.93S

$$

OFFSHORE ISLANDS

CITY           SKY/WX    TMP DP  RH WIND       PRES   REMARKS
CATALINA ARPT  PTSUNNY   58  51  78 W15       29.95F
SAN NICOLAS IS MOSUNNY  N/A N/A N/A NW25G39   29.98F

$$

MARINE AND OFFSHORE BUOY REPORTS

STATION/POSITION SKY/WX   TEMP    WIND        PRES    VSBY  SWELL
                          AIR SEA DIR/SP/G                  HT/PER/DIR
                          (F)     (DEG/KT/KT) (MB)    (MI)  (FT/S/D)
TANNER BANKS               60 60  310/ 21/ 27 1015.9F        10/300/16
S CLEMENTE BASIN           62 63  310/ 19/ 23 1014.5F         8/280/14
SAN NICOLAS IS.               60                N/A          11/290/15
SO. S. ROSA ISLA           57 60  310/ 23/ 29 1016.7F        10/300/16
W. S. BARBARA CH           58 60  320/ 23/ 31 1016.2F        10/310/16
M. S. BARBARA CH           60 61  280/ 21/ 27 1014.3F         5/250/15
S. MONICA BASIN            62 62  280/  6/ 12 1014.0F         7/270/16
S PEDRO CHANNEL               63                N/A           5/270/15
OCEANSIDE OFFSHR              63                N/A           3/260/13
TORREY PINES OTR              61                N/A           5/280/15
SAN DIEGO BAY                 62              1014.5F
IMPERIAL BEACH                62                N/A           7/270/13
POINT LOMA SOUTH              64                N/A           7/270/14

$$




 

View Past Reports for San Diego, CA.

Products Courtesy of NOAA-NWS
NWS Information Parsing Script by Ken True at Saratoga Weather - Script by SE Lincoln Weather.